RYR75C GCTS-EGGD

Flight info

Callsign RYR75C
Flight time N/A
Altitude 36000
Route KONBA UN866 BEXAL DCT DEMOS DCT KORUL DCT KOLEK DCT EBOMO DCT RUSIB DCT NOZHU/N0387F290 DCT SHIRI DCT TOJAQ
Aircraft B738/M-SDE2E3FGHIRWXY/LB1

Departure

Time 2026-05-05 15:52
Airport Tenerife Sur Airport (GCTS)

Arrival

Time N/A
Airport Bristol Airport (EGGD)
Time Latitude Longitude Altitude Speed Heading
2026-05-05 15:19 28.04709 -16.57681 226 ft 0 kts 338°
2026-05-05 15:40 28.04706 -16.57679 225 ft 3 kts 338°
2026-05-05 15:41 28.04681 -16.57668 225 ft 4 kts 339°
2026-05-05 15:41 28.04659 -16.57659 227 ft 4 kts 336°
2026-05-05 15:41 28.04640 -16.57643 226 ft 4 kts 283°
2026-05-05 15:41 28.04643 -16.57616 223 ft 3 kts 250°
2026-05-05 15:42 28.04645 -16.57610 225 ft 1 kts 250°
2026-05-05 15:42 28.04645 -16.57608 225 ft 1 kts 250°
2026-05-05 15:44 28.04643 -16.57616 223 ft 4 kts 249°
2026-05-05 15:44 28.04620 -16.57682 223 ft 11 kts 242°
2026-05-05 15:45 28.04546 -16.57690 223 ft 12 kts 158°
2026-05-05 15:45 28.04474 -16.57702 222 ft 13 kts 236°
2026-05-05 15:45 28.04430 -16.57824 224 ft 21 kts 248°
2026-05-05 15:45 28.04369 -16.58001 222 ft 26 kts 248°
2026-05-05 15:46 28.04301 -16.58193 222 ft 26 kts 249°
2026-05-05 15:46 28.04238 -16.58375 222 ft 24 kts 248°
2026-05-05 15:46 28.04186 -16.58547 223 ft 23 kts 257°
2026-05-05 15:46 28.04130 -16.58711 218 ft 17 kts 248°
2026-05-05 15:47 28.04107 -16.58772 215 ft 6 kts 240°
2026-05-05 15:47 28.04066 -16.58794 208 ft 7 kts 175°
2026-05-05 15:47 28.04036 -16.58782 207 ft 3 kts 154°
2026-05-05 15:47 28.04033 -16.58780 206 ft 0 kts 150°
2026-05-05 15:48 28.04028 -16.58777 206 ft 2 kts 149°
2026-05-05 15:49 28.04025 -16.58774 205 ft 0 kts 143°
2026-05-05 15:49 28.04009 -16.58747 206 ft 9 kts 109°
2026-05-05 15:50 28.04003 -16.58704 198 ft 4 kts 98°
2026-05-05 15:50 28.03993 -16.58644 199 ft 9 kts 112°
2026-05-05 15:50 28.03984 -16.58577 198 ft 9 kts 69°
2026-05-05 15:50 28.03990 -16.58561 207 ft 0 kts 69°
2026-05-05 15:51 28.03990 -16.58560 207 ft 0 kts 69°
2026-05-05 15:51 28.03992 -16.58556 206 ft 11 kts 69°
2026-05-05 15:52 28.04146 -16.58111 191 ft 108 kts 68°
2026-05-05 15:52 28.04530 -16.57042 326 ft 174 kts 69°
2026-05-05 15:52 28.05035 -16.55823 1520 ft 170 kts 65°
2026-05-05 15:52 28.05460 -16.54555 2538 ft 184 kts 67°
2026-05-05 15:53 28.05941 -16.53069 2941 ft 216 kts 66°
2026-05-05 15:53 28.06494 -16.51403 3292 ft 236 kts 66°
2026-05-05 15:53 28.07108 -16.49604 3699 ft 257 kts 67°
2026-05-05 15:53 28.07789 -16.47642 4328 ft 269 kts 67°
2026-05-05 15:54 28.08469 -16.45693 5274 ft 272 kts 68°
2026-05-05 15:54 28.09155 -16.43660 6069 ft 281 kts 69°
2026-05-05 15:54 28.09845 -16.41532 6881 ft 287 kts 70°
2026-05-05 15:54 28.10531 -16.39396 7547 ft 299 kts 70°
2026-05-05 15:55 28.11246 -16.37168 8405 ft 302 kts 70°
2026-05-05 15:55 28.11968 -16.34925 9275 ft 306 kts 70°
2026-05-05 15:55 28.12707 -16.32628 9991 ft 314 kts 70°
2026-05-05 15:55 28.13471 -16.30255 10523 ft 330 kts 70°
2026-05-05 15:56 28.14289 -16.27714 10713 ft 357 kts 70°
2026-05-05 15:56 28.15169 -16.24982 10912 ft 381 kts 70°
2026-05-05 15:56 28.16104 -16.22082 11074 ft 403 kts 70°
2026-05-05 15:56 28.17089 -16.19023 11267 ft 422 kts 70°
2026-05-05 15:57 28.18106 -16.15861 11705 ft 431 kts 70°
2026-05-05 15:57 28.19139 -16.12650 12239 ft 437 kts 70°
2026-05-05 15:57 28.20236 -16.09418 12769 ft 443 kts 64°
2026-05-05 15:57 28.22027 -16.06579 13242 ft 446 kts 41°
2026-05-05 15:58 28.24551 -16.04580 13824 ft 442 kts 21°
2026-05-05 15:58 28.27440 -16.03476 14329 ft 437 kts
2026-05-05 15:58 28.30434 -16.03303 14856 ft 428 kts 349°
2026-05-05 15:58 28.33418 -16.03473 15462 ft 436 kts 359°
2026-05-05 15:59 28.36440 -16.02847 15982 ft 446 kts
2026-05-05 15:59 28.39460 -16.01957 16483 ft 450 kts 10°
2026-05-05 15:59 28.42504 -16.01057 16949 ft 454 kts
2026-05-05 15:59 28.45586 -16.00188 17427 ft 458 kts
2026-05-05 16:00 28.48696 -15.99361 17911 ft 461 kts
2026-05-05 16:00 28.51839 -15.98566 18345 ft 465 kts
2026-05-05 16:00 28.55009 -15.97791 18735 ft 468 kts
2026-05-05 16:00 28.58209 -15.97023 19139 ft 471 kts
2026-05-05 16:01 28.61427 -15.96257 19569 ft 474 kts
2026-05-05 16:01 28.64664 -15.95488 19948 ft 477 kts
2026-05-05 16:01 28.67932 -15.94711 20279 ft 482 kts
2026-05-05 16:01 28.71232 -15.93925 20623 ft 486 kts
2026-05-05 16:02 28.74557 -15.93130 20968 ft 490 kts
2026-05-05 16:02 28.77907 -15.92327 21312 ft 494 kts
2026-05-05 16:02 28.81283 -15.91516 21646 ft 498 kts
2026-05-05 16:02 28.84684 -15.90699 21966 ft 501 kts
2026-05-05 16:03 28.88105 -15.89875 22328 ft 504 kts
2026-05-05 16:03 28.91532 -15.89049 22851 ft 502 kts
2026-05-05 16:03 28.94958 -15.88221 23189 ft 506 kts
2026-05-05 16:03 28.98419 -15.87388 23424 ft 510 kts
2026-05-05 16:04 29.01903 -15.86550 23682 ft 514 kts
2026-05-05 16:04 29.05360 -15.85717 23937 ft 516 kts
2026-05-05 16:04 29.08878 -15.84867 24228 ft 517 kts
2026-05-05 16:04 29.12449 -15.84003 24500 ft 519 kts
2026-05-05 16:05 29.15993 -15.83145 24751 ft 521 kts
2026-05-05 16:05 29.19491 -15.82297 25102 ft 521 kts
2026-05-05 16:05 29.23036 -15.81437 25417 ft 521 kts
2026-05-05 16:05 29.26596 -15.80575 25633 ft 524 kts
2026-05-05 16:06 29.30175 -15.79708 25831 ft 527 kts
2026-05-05 16:06 29.33774 -15.78837 26060 ft 529 kts
2026-05-05 16:06 29.37373 -15.77962 26366 ft 529 kts
2026-05-05 16:06 29.40969 -15.77087 26706 ft 528 kts
2026-05-05 16:07 29.44561 -15.76212 27055 ft 528 kts
2026-05-05 16:07 29.48126 -15.75341 27743 ft 519 kts
2026-05-05 16:07 29.51641 -15.74479 28300 ft 515 kts
2026-05-05 16:07 29.55158 -15.73623 28519 ft 519 kts
2026-05-05 16:08 29.58705 -15.72763 28698 ft 523 kts
2026-05-05 16:08 29.62267 -15.71898 28999 ft 523 kts
2026-05-05 16:08 29.65825 -15.71030 29399 ft 522 kts
2026-05-05 16:08 29.69378 -15.70161 29826 ft 521 kts
2026-05-05 16:09 29.72926 -15.69292 30165 ft 522 kts
2026-05-05 16:09 29.76479 -15.68422 30453 ft 522 kts
2026-05-05 16:09 29.80028 -15.67553 30767 ft 522 kts
2026-05-05 16:09 29.83578 -15.66682 31099 ft 521 kts
2026-05-05 16:10 29.87122 -15.65813 31413 ft 521 kts
2026-05-05 16:10 29.90667 -15.64942 31715 ft 521 kts
2026-05-05 16:10 29.94210 -15.64072 32016 ft 520 kts
2026-05-05 16:10 29.97756 -15.63202 32269 ft 522 kts
2026-05-05 16:11 30.01307 -15.62329 32564 ft 522 kts
2026-05-05 16:11 30.11721 -15.59754 33854 ft 513 kts
2026-05-05 16:12 30.15228 -15.58897 33945 ft 517 kts
2026-05-05 16:12 30.22258 -15.57165 34477 ft 515 kts
2026-05-05 16:13 30.32711 -15.54571 35463 ft 508 kts
2026-05-05 16:13 30.36150 -15.53716 35885 ft 503 kts
2026-05-05 16:13 30.39572 -15.52866 36079 ft 504 kts
2026-05-05 16:14 30.53309 -15.49462 36066 ft 504 kts
2026-05-05 16:15 30.66992 -15.46050 36073 ft 499 kts
2026-05-05 16:16 30.80501 -15.42676 36069 ft 495 kts
2026-05-05 16:17 30.90599 -15.40150 36095 ft 495 kts
2026-05-05 16:18 31.00628 -15.37631 36070 ft 493 kts
2026-05-05 16:19 31.10668 -15.35105 36075 ft 491 kts
2026-05-05 16:19 31.20673 -15.32582 36080 ft 489 kts
2026-05-05 16:20 31.33624 -15.27696 36068 ft 501 kts 28°